Station NLHC3 - 8461490 - New London, CT Image indicating link to RSS feed of recent meteorological observations for station NLHC3


Conditions at NLHC3 as of
(11:30 pm EDT on 04/14/2024)
0330 GMT on 04/15/2024:
     

Click on the graph icon in the table below to see a time series plot of the last five days of that observation.

5-day plot - Atmospheric Pressure Atmospheric Pressure (PRES):29.68 in
5-day plot - Air Temperature Air Temperature (ATMP): 51.8 °F
5-day plot - Water Temperature Water Temperature (WTMP): 54.1 °F
NOS Water Level Observation Network Water Level
Previous observations
TIME
(EDT)
5-day plot - Wind Direction
WDIR
 
5-day plot - Wind Speed
WSPD
kts
5-day plot - Wind Gust
GST
kts
5-day plot - Wave Height
WVHT
ft
5-day plot - Dominant Wave Period
DPD
sec
5-day plot - Average Wave Period
APD
sec
5-day plot - Mean Wave Direction
MWD
 
5-day plot - Atmospheric Pressure
PRES
in
5-day plot - Pressure Tendency
PTDY
in
5-day plot - Air Temperature
ATMP
°F
5-day plot - Water Temperature
WTMP
°F
5-day plot - Dew Point
DEWP
°F
5-day plot - Salinity
SAL
psu
5-day plot - Visibility
VIS
nmi
5-day plot - Tide (above MLLW)
TIDE
ft
2024-04-14 11:24 pm-------29.69- 52.0 54.1----
2024-04-14 11:18 pm-------29.69- 52.2 54.1----
2024-04-14 11:12 pm-------29.68- 52.7 54.1----
2024-04-14 11:06 pm-------29.69- 52.9 54.1----
2024-04-14 11:00 pm-------29.69+0.00 52.9 54.1----
2024-04-14 10:54 pm-------29.69- 52.9 54.1----
2024-04-14 10:48 pm-------29.69- 52.5 54.3----
2024-04-14 10:42 pm-------29.69- 52.9 54.3----
2024-04-14 10:36 pm-------29.69- 52.9 54.1----
2024-04-14 10:30 pm-------29.69- 53.1 54.1----
2024-04-14 10:24 pm-------29.69- 53.1 54.5----
2024-04-14 10:18 pm-------29.70- 52.9 54.7----
2024-04-14 10:12 pm-------29.70- 53.1 54.7----
2024-04-14 10:06 pm-------29.69- 53.1 54.7----
2024-04-14 10:00 pm-------29.70+0.01 52.9 54.7----
2024-04-14 09:54 pm-------29.70- 52.9 54.7----
2024-04-14 09:48 pm-------29.70- 52.9 54.9----
2024-04-14 09:42 pm-------29.70- 53.1 54.9----
2024-04-14 09:36 pm-------29.71- 52.9 54.9----
2024-04-14 09:30 pm-------29.70- 53.1 54.9----
2024-04-14 09:24 pm-------29.70- 53.1 54.7----
2024-04-14 09:18 pm-------29.70- 53.2 54.9----
2024-04-14 09:12 pm-------29.70- 53.4 54.9----
2024-04-14 09:06 pm-------29.70- 53.4 54.9----
2024-04-14 09:00 pm-------29.70-0.08 53.2 54.9----
2024-04-14 08:54 pm-------29.69- 53.2 54.9----
2024-04-14 08:48 pm-------29.68-- 54.9----
2024-04-14 08:42 pm-------29.68-- 54.9----
2024-04-14 08:36 pm-------29.68-- 54.9----
2024-04-14 08:30 pm-------29.67- 52.9 54.9----
2024-04-14 08:24 pm-------29.67- 52.9 54.9----
2024-04-14 08:18 pm--------- 53.1 55.0----
2024-04-14 08:12 pm--------- 53.1 54.9----
2024-04-14 08:06 pm--------- 53.1 55.0----
2024-04-14 08:00 pm-------29.69-0.03 53.2 55.0----
2024-04-14 07:54 pm-------29.68- 53.2 55.0----
2024-04-14 07:48 pm-------29.69- 53.2 55.0----
2024-04-14 07:42 pm-------29.69- 53.1 55.0----
2024-04-14 07:36 pm-------29.69- 52.9 55.0----
2024-04-14 07:30 pm-------29.69- 52.7 55.0----
2024-04-14 07:24 pm-------29.69- 52.5 55.0----
2024-04-14 07:00 pm-------29.69-0.06- 55.0----
2024-04-14 06:54 pm-------29.70-- 55.0----
2024-04-14 06:48 pm-------29.71- 53.4 55.0----
2024-04-14 06:42 pm-------29.74- 53.8 55.0----
2024-04-14 06:36 pm-------29.75- 53.8 55.0----
2024-04-14 06:30 pm-------29.76- 53.6 55.0----
2024-04-14 06:24 pm-------29.75- 53.4 55.0----
2024-04-14 06:18 pm-------29.75- 53.1 55.2----
2024-04-14 06:12 pm-------29.76- 52.0 55.2----
2024-04-14 06:06 pm-------29.76- 52.9 55.0----
2024-04-14 06:00 pm-------29.78+0.02 52.7 55.2----
2024-04-14 05:54 pm-------29.78- 52.5 55.2----
2024-04-14 05:48 pm-------29.75-- 55.0----
2024-04-14 05:42 pm-------29.73-- 55.0----
2024-04-14 05:36 pm-------29.75-- 55.0----
2024-04-14 05:30 pm-------29.78-- 55.2----
2024-04-14 05:24 pm-------29.73-- 55.0----
2024-04-14 05:18 pm-------29.66- 51.6 55.2----
2024-04-14 05:12 pm-------29.64- 50.9 55.0----
2024-04-14 05:06 pm-------29.66- 51.4 55.0----
2024-04-14 05:00 pm-------29.72-0.09 51.6 54.9----
2024-04-14 04:54 pm-------29.76- 51.4 54.9----
2024-04-14 04:48 pm-------29.77- 51.6 54.9----
2024-04-14 04:42 pm-------29.77- 51.8 54.5----
2024-04-14 04:36 pm-------29.74- 51.4 54.3----
2024-04-14 04:30 pm-------29.72- 51.3 54.3----
2024-04-14 04:24 pm-------29.72- 50.7 54.1----
2024-04-14 04:18 pm-------29.77- 50.5 54.0----
2024-04-14 04:12 pm-------29.80- 50.2 54.0----
2024-04-14 04:06 pm-------29.83- 50.4 54.0----
2024-04-14 04:00 pm-------29.75-0.11 51.1 53.6----
2024-04-14 03:54 pm-------29.70- 50.7 53.6----
2024-04-14 03:48 pm-------29.71- 50.9 53.8----
2024-04-14 03:42 pm-------29.73- 50.9 53.6----
2024-04-14 03:36 pm-------29.79- 51.4 53.6----
2024-04-14 03:30 pm-------29.80- 52.9 53.6----
2024-04-14 03:24 pm-------29.80- 52.9 53.6----
2024-04-14 03:18 pm-------29.78- 51.8 53.6----
2024-04-14 03:12 pm-------29.78- 51.8 53.8----
2024-04-14 03:06 pm-------29.77- 52.3 53.8----
2024-04-14 03:00 pm-------29.75-0.13------
2024-04-14 02:54 pm-------29.78-------
2024-04-14 02:48 pm-------29.80- 54.3 53.8----
2024-04-14 02:42 pm-------29.78- 55.8 53.6----
2024-04-14 02:36 pm-------29.78- 55.6 53.8----
2024-04-14 02:30 pm-------29.78- 59.0 53.4----
2024-04-14 02:24 pm-------29.79- 59.2 53.4----
2024-04-14 02:18 pm-------29.79- 58.8 53.1----
2024-04-14 02:12 pm-------29.80- 57.7 53.4----
2024-04-14 02:06 pm-------29.80- 57.0 53.6----
2024-04-14 02:00 pm-------29.81-0.08 57.9 54.0----
2024-04-14 01:54 pm-------29.81- 58.6 54.0----
2024-04-14 01:48 pm-------29.83- 58.8 54.3----
2024-04-14 01:42 pm-------29.84- 58.8 54.3----
2024-04-14 01:36 pm-------29.85- 58.8 54.3----
2024-04-14 01:30 pm-------29.85- 58.3 54.3----
2024-04-14 01:24 pm-------29.85- 57.9 54.1----
2024-04-14 01:18 pm-------29.85- 57.7 54.1----
2024-04-14 01:12 pm-------29.85- 57.6 54.1----
2024-04-14 01:06 pm-------29.85- 57.2 54.3----
2024-04-14 01:00 pm-------29.86-0.05 56.8 54.5----
2024-04-14 12:54 pm-------29.86- 56.5 54.5----
2024-04-14 12:48 pm-------29.87-- 54.7----
2024-04-14 12:42 pm-------29.88-- 54.7----
2024-04-14 12:36 pm-------29.88-- 54.5----
2024-04-14 12:30 pm-------29.88-- 54.3----
2024-04-14 12:24 pm-------29.87-- 54.1----
2024-04-14 12:18 pm-------29.87- 55.4 54.1----
2024-04-14 12:12 pm-------29.88- 54.9 54.1----
2024-04-14 12:06 pm-------29.88- 54.5 54.1----
2024-04-14 12:00 pm-------29.88-0.04 54.0 54.1----
2024-04-14 11:54 am-------29.88- 53.8 54.1----
2024-04-14 11:48 am-------29.88- 53.6 54.0----
2024-04-14 11:42 am-------29.89- 54.1 54.0----
2024-04-14 11:36 am-------29.89- 54.5 54.0----
2024-04-14 11:30 am-------29.89-- 54.0----
2024-04-14 11:24 am-------29.90-- 54.1----
2024-04-14 11:18 am-------29.90-- 53.8----
2024-04-14 11:12 am-------29.90-- 54.0----
2024-04-14 11:06 am-------29.90-- 54.1----
2024-04-14 11:00 am-------29.89-0.01 55.0 54.0----
2024-04-14 10:54 am-------29.90- 55.0 53.8----
2024-04-14 10:48 am-------29.90- 55.0 53.6----
2024-04-14 10:42 am-------29.91- 54.5 53.8----
2024-04-14 10:36 am-------29.91- 54.3 53.8----
2024-04-14 10:30 am-------29.91- 54.7 54.3----
2024-04-14 10:24 am-------29.90- 54.5 54.1----
2024-04-14 10:18 am-------29.90- 54.3 54.1----
2024-04-14 10:12 am-------29.91- 55.4 54.1----
2024-04-14 10:06 am-------29.91- 55.0 54.1----
2024-04-14 10:00 am-------29.91+0.01- 54.0----
2024-04-14 09:54 am-------29.91-- 54.0----
2024-04-14 09:48 am-------29.92- 54.3 54.0----
2024-04-14 09:42 am-------29.92- 54.3 53.8----
2024-04-14 09:36 am-------29.92- 53.6 53.6----
2024-04-14 09:30 am-------29.92-- 53.6----
2024-04-14 09:24 am-------29.92-- 53.6----
2024-04-14 09:18 am-------29.92- 52.9 53.6----
2024-04-14 09:12 am-------29.92- 52.0 53.8----
2024-04-14 09:06 am-------29.93- 52.3 53.6----
2024-04-14 09:00 am-------29.92- 52.0 53.6----
2024-04-14 08:54 am-------29.92- 51.6 53.6----
2024-04-14 08:48 am-------29.92- 51.4 53.8----
2024-04-14 08:42 am-------29.92- 51.1 53.6----
2024-04-14 08:36 am-------29.92- 50.9 53.6----
2024-04-14 08:30 am-------29.92-- 53.4----
2024-04-14 08:24 am-------29.92-- 53.6----
2024-04-14 08:18 am-------29.91- 50.4 53.6----
2024-04-14 08:12 am-------29.91- 49.8 53.6----
2024-04-14 08:06 am-------29.91- 49.3 53.6----
2024-04-14 08:00 am-------29.91+0.06- 53.6----
2024-04-14 07:54 am-------29.91-- 53.6----
2024-04-14 07:48 am-------29.91-- 53.6----
2024-04-14 07:42 am-------29.91-- 53.8----
2024-04-14 07:36 am-------29.90-- 53.6----
2024-04-14 07:30 am-------29.90- 48.6 53.6----
2024-04-14 07:24 am-------29.90- 48.9 53.6----
2024-04-14 07:18 am-------29.90-------
2024-04-14 07:12 am-------29.90-------
2024-04-14 07:06 am-------29.89-------
2024-04-14 07:00 am-------29.89+0.06 46.8 53.6----
2024-04-14 06:54 am-------29.88- 47.3 53.8----
2024-04-14 06:48 am-------29.88-- 53.8----
2024-04-14 06:42 am-------29.88-- 53.8----
2024-04-14 06:36 am-------29.88-- 53.6----
2024-04-14 06:30 am-------29.88- 45.1 53.6----
2024-04-14 06:24 am-------29.88- 44.4 53.6----
2024-04-14 06:18 am-------29.87- 45.0 53.6----
2024-04-14 06:12 am-------29.87- 44.8 53.6----
2024-04-14 06:06 am-------29.87- 44.6 53.6----
2024-04-14 06:00 am--------- 44.1-----
2024-04-14 05:54 am--------- 44.4-----
2024-04-14 05:48 am--------- 44.4 53.8----
2024-04-14 05:42 am--------- 44.4 53.8----
2024-04-14 05:36 am--------- 44.1 53.8----
2024-04-14 05:30 am-------29.86-- 53.8----
2024-04-14 05:24 am-------29.86-- 53.8----
2024-04-14 05:18 am-------29.86- 43.9 53.6----
2024-04-14 05:12 am-------29.85- 44.2 53.6----
2024-04-14 05:06 am-------29.85- 45.0 53.6----
2024-04-14 05:00 am-------29.85+0.07 44.6 53.8----
2024-04-14 04:54 am-------29.85- 44.2 53.8----
2024-04-14 04:48 am-------29.85- 44.1 53.8----
2024-04-14 04:42 am-------29.85- 44.2 53.6----
2024-04-14 04:36 am-------29.84- 44.2 53.6----
2024-04-14 04:30 am-------29.84- 44.6 53.8----
2024-04-14 04:24 am-------29.84- 44.2 53.8----
2024-04-14 04:18 am-------29.84- 45.0 53.8----
2024-04-14 04:12 am-------29.83- 45.5 53.8----
2024-04-14 04:06 am-------29.83- 45.7 53.8----
2024-04-14 04:00 am-------29.83+0.06 45.9 54.0----
2024-04-14 03:54 am-------29.83- 46.0 54.0----
2024-04-14 03:48 am-------29.83- 46.0 54.0----
2024-04-14 03:42 am-------29.82- 46.0 53.8----
2024-04-14 03:36 am-------29.82- 46.2 54.0----
2024-04-14 03:30 am-------29.82- 46.0 54.0----
2024-04-14 03:24 am-------29.81- 46.0 54.0----
2024-04-14 03:18 am-------29.81- 46.0 53.8----
2024-04-14 03:12 am-------29.81- 46.0 53.4----
2024-04-14 03:06 am-------29.80- 46.0 53.2----
2024-04-14 03:00 am-------29.80+0.04 46.0 53.1----
2024-04-14 02:54 am-------29.80- 46.0 52.9----
2024-04-14 02:48 am-------29.80- 46.2 52.5----
2024-04-14 02:42 am-------29.80- 46.2 52.9----
2024-04-14 02:36 am-------29.79- 46.4 52.9----
2024-04-14 02:30 am-------29.79- 46.6 52.9----
2024-04-14 02:24 am-------29.79- 46.8 52.9----
2024-04-14 02:18 am-------29.79- 46.6 52.9----
2024-04-14 02:12 am-------29.78- 46.6 52.5----
2024-04-14 02:06 am-------29.78- 46.6 52.3----
2024-04-14 02:00 am-------29.78+0.03 46.6 52.5----
2024-04-14 01:54 am-------29.78- 46.8 52.9----
2024-04-14 01:48 am-------29.78- 46.9 53.4----
2024-04-14 01:42 am-------29.78- 46.9 53.8----
2024-04-14 01:36 am-------29.78- 47.1 53.8----
2024-04-14 01:30 am-------29.78- 47.1 53.8----
2024-04-14 01:24 am-------29.78- 47.3 53.6----
2024-04-14 01:18 am-------29.78- 47.3 53.6----
2024-04-14 01:12 am-------29.78- 47.3 54.0----
2024-04-14 01:06 am-------29.78- 47.5 54.0----
2024-04-14 01:00 am-------29.78+0.03 47.7 54.0----
2024-04-14 12:54 am-------29.78- 47.8 54.0----
2024-04-14 12:48 am-------29.77- 47.8 54.0----
2024-04-14 12:42 am-------29.77- 48.0 54.0----
2024-04-14 12:36 am-------29.77- 48.2 53.8----
2024-04-14 12:30 am-------29.77- 48.2 53.6----
2024-04-14 12:24 am-------29.77- 48.4 53.8----
2024-04-14 12:18 am-------29.76- 48.6 53.6----
2024-04-14 12:12 am-------29.77- 48.7 53.8----
2024-04-14 12:06 am-------29.77- 48.7 53.8----
2024-04-14 12:00 am-------29.76+0.04 48.9 53.8----
2024-04-13 11:54 pm-------29.77- 48.9 54.0----